2 27939 097.9560 330.1489 0013908 016.3195 343.8445 14.63304711294514
VO-52
1 28650U 05017B 09091.80030356 .00000117 00000-0 21441-4 0 1939
2 28650 097.7484 155.8811 0026024 279.9261 079.9056 14.81567140211334
PO-63
1 29712U 07001D 09092.59241807 .00000520 00000-0 74589-4 0 3667
2 29712 097.8365 150.7842 0014555 156.4580 203.7309 14.80490986120283
AO-16
1 20439U 90005D 09092.52256830 .00000000 00000-0 15478-4 0 5718
2 20439 098.2719 064.3972 0011664 039.8914 320.3124 14.31819811 2328
LO-19
1 20442U 90005G 09092.45221533 -.00000001 00000-0 14832-4 0 4912
2 20442 098.2366 071.8836 0012670 036.2433 323.9626 14.32056107 2471
AO-27
1 22825U 93061C 09091.90895350 -.00000019 00000-0 92428-5 0 02125
2 22825 098.4292 047.7634 0009079 124.8818 235.3217 14.29261603809018
IO-26
1 22826U 93061D 09091.84257582 .00000004 00000-0 17974-4 0 09344
2 22826 098.4215 048.4816 0009700 122.1315 238.0817 14.29513105809101
GO-32
1 25397U 98043D 09091.57923045 -.00000084 00000-0 -19238-4 0 08590
2 25397 098.3335 118.0019 0002064 105.6818 254.4589 14.23156512557239
NO-44
1 26931U 01043C 09092.51483993 -.00000047 00000-0 13901-4 0 1353
2 26931 067.0516 259.2949 0005097 264.5829 095.4681 14.29551987391765
SO-50
1 27607U 02058C 09091.59189399 -.00000087 00000-0 86928-5 0 8509
2 27607 064.5561 257.7199 0075202 222.5337 136.9921 14.71423300337404
CO-55
1 27844U 03031E 09091.57484598 .00000031 00000-0 34838-4 0 05474
2 27844 098.7143 101.8182 0010207 010.1410 349.9971 14.20629361298383
CO-57
1 27848U 03031J 09091.82349192 .00000042 00000-0 39783-4 0 04943
2 27848 098.7180 101.1268 0010170 012.5222 347.6211 14.20432978298380
AO-51
1 28375U 04025K 09091.56481326 .00000003 00000-0 13705-4 0 03548
2 28375 098.0559 105.6281 0084854 358.3738 001.7164 14.40637136249922
CO-56
1 28941U 06005C 09092.68492113 .00052395 33986-5 22711-3 0 9555
2 28941 098.1343 253.4769 0105735 056.2366 304.9002 15.76847260175321
CP3
1 31128U 07012M 09091.66190445 -.00000046 00000-0 00000-0 0 05941
2 31128 097.9948 148.2823 0102996 161.8239 198.6681 14.52028939103790
CP4
1 31132U 07012Q 09091.89178781 .00000010 00000-0 12461-4 0 05735
2 31132 098.0028 152.1225 0086473 150.4017 210.2091 14.55194132103939
CO-65
1 32785U 08021C 09091.60069051 .00000173 00000-0 28854-4 0 03336
2 32785 097.9542 156.1756 0013877 282.2156 077.7511 14.81463451050107
SOHLA-1
1 33496U 09002E 09092.59759831 -.00000003 00000-0 77184-5 0 2116
2 33496 098.0297 203.1164 0006978 154.1592 205.9963 14.69427164 10173
NOAA-10
1 16969U 86073A 09091.61024306 -.00000038 00000-0 25645-5 0 05586
2 16969 098.6989 118.6513 0013150 062.0424 298.2100 14.27382950172581
NOAA-11
1 19531U 88089A 09091.83383846 -.00000168 00000-0 -64427-4 0 05691
2 19531 098.7817 182.9690 0011277 330.2770 029.7763 14.14891083058721
NOAA-12
1 21263U 91032A 09091.95478780 .00000017 00000-0 26126-4 0 00851
2 21263 098.7736 099.9771 0012827 011.6344 348.5125 14.25572256929532
MET-3/5
1 21655U 91056A 09091.95222198 .00000051 00000-0 10000-3 0 07153
2 21655 082.5491 260.3520 0014241 016.0670 344.0901 13.17019171847595
MET-2/21
1 22782U 93055A 09092.53866945 .00000018 00000-0 30718-5 0 4201
2 22782 082.5461 242.0073 0021871 195.5279 164.5209 13.83634261787145
OKEAN-4
1 23317U 94066A 09091.70496727 .00000088 00000-0 79991-5 0 8694
2 23317 082.5398 045.8531 0020395 256.5859 103.3095 14.82684410781036
NOAA-14
1 23455U 94089A 09091.73623553 -.00000174 00000-0 -68333-4 0 05674
2 23455 098.9116 169.6728 0010040 051.4729 308.7343 14.13759809735120
NOAA-15
1 25338U 98030A 09091.85639211 .00000142 00000-0 79353-4 0 08745
2 25338 098.5818 082.7532 0009620 281.9728 078.0365 14.24752193565905
RESURS
1 25394U 98043A 09091.93253500 -.00000033 00000-0 34066-5 0 01985
2 25394 098.3508 128.1353 0002458 071.7876 288.3571 14.24181038557548
FENGYUN1
1 25730U 99025A 09091.95882881 .00000545 00000-0 34492-3 0 07638
2 25730 098.7520 064.4157 0023136 074.6353 285.7372 14.07958928509595
OKEAN-0
1 25860U 99039A 09091.84791224 .00000030 00000-0 11959-4 0 06402
2 25860 097.7807 076.0877 0001849 071.8098 288.3310 14.73565190521904
NOAA-16
1 26536U 00055A 09091.86180193 -.00000183 00000-0 -74009-4 0 03483
2 26536 099.1770 093.6841 0011139 132.7945 227.4172 14.12512396439526
NOAA-17
1 27453U 02032A 09091.76661989 .00000190 00000-0 10100-3 0 03572
2 27453 098.4908 153.4418 0011442 351.7307 008.3690 14.24052716351877
NOAA-18
1 28654U 05018A 09091.76053237 .00000237 00000-0 15551-3 0 08497
2 28654 098.9018 035.6152 0013703 216.5696 143.4551 14.11245477199179
NOAA-19
1 33591U 09005A 09091.79509241 -.00000088 00000-0 -25060-4 0 00560
2 33591 098.7403 039.5692 0015070 099.1071 261.1816 14.10944944007662
HUBBLE
1 20580U 90037B 09091.76123720 .00000341 00000-0 13464-4 0 03603
2 20580 028.4712 240.9677 0004013 213.8753 146.1583 15.00469555838369
PO-34
1 25520U 98064B 09091.95844739 .00000339 00000-0 68613-5 0 02200
2 25520 028.4602 045.3106 0005706 193.3697 166.6743 15.17316038577066
ISS
1 25544U 98067A 09092.68379046 .00009829 00000-0 73629-4 0 5976
2 25544 051.6414 333.8809 0009471 189.1482 170.9871 15.71872827594077
CO-58
1 28895U 05043F 09091.70483501 .00000011 00000-0 11838-4 0 2687
2 28895 098.0700 344.4262 0017096 224.8071 135.1745 14.59754033182570
FALCON
1 30776U 07006E 09091.65245515 .00000400 00000-0 32021-4 0 05507
2 30776 035.4335 203.7469 0002185 332.4935 027.5667 15.03203713113579
MAST
1 31126U 07012K 09091.69050556 .00000061 00000-0 24169-4 0 5627
2 31126 097.9960 149.9697 0095374 156.7630 203.7929 14.53486640103924
CAPE1
1 31130U 07012P 09091.86032212 .00000127 00000-0 39839-4 0 5656
2 31130 097.9976 148.4852 0103578 161.1458 199.3601 14.52045024103616
COMPASS
1 32787U 08021E 09092.66407009 .00000090 00000-0 18257-4 0 3215
2 32787 097.9506 157.1039 0014628 278.9440 081.0116 14.81570638 50269
AAUSAT2
1 32788U 08021F 09091.82779098 .00000309 00000-0 46005-4 0 03230
2 32788 097.9497 156.3196 0014358 283.8086 076.1514 14.81692443050148
DO-64
1 32789U 08021G 09091.84808604 .00000112 00000-0 21014-4 0 3290
2 32789 097.9527 156.4570 0014381 279.7069 080.2503 14.81651420 50145
CO-66
1 32791U 08021J 09091.61766053 .00000479 00000-0 67962-4 0 03130
2 32791 097.9521 156.0964 0015029 281.4956 078.4584 14.81408279050072
RS-30
1 32953U 08025A 09091.64407007 .00000010 00000-0 00000 0 0 2694
2 32953 082.5001 304.2232 0019284 348.6497 011.4147 12.43000276 38881
/EX
1
0
SB KEPS @ AMSAT $ORB09092.O
Orbital Elements 09092.OSCAR
HR AMSAT ORBITAL ELEMENTS FOR OSCAR SATELLITES
FROM WA5QGD FORT WORTH,TX April 2, 2009
Send Subscribe/unsubscribe to KEPS at
http://www.amsat.org/mailman/listinfo/keps
BID: ORB09092.O
TO ALL RADIO AMATEURS BT
Satellite: AO-07
Catalog number: 07530
Epoch time: 09092.51213256
Element set: 441
Inclination: 101.4341 deg
RA of node: 119.9496 deg
Eccentricity: 0.0012072
Arg of perigee: 057.5686 deg
Mean anomaly: 302.6554 deg
Mean motion: 12.53575587 rev/day
Decay rate: -2.7e-07 rev/day^2
Epoch rev: 57323
Checksum: 292
Satellite: AO-10
Catalog number: 14129
Epoch time: 09091.00742006
Element set: 0640
Inclination: 025.9572 deg
RA of node: 164.0988 deg
Eccentricity: 0.5985792
Arg of perigee: 210.5252 deg
Mean anomaly: 094.1221 deg
Mean motion: 02.05867547 rev/day
Decay rate: 1.01e-06 rev/day^2
Epoch rev: 19403
Checksum: 286
Satellite: UO-11
Catalog number: 14781
Epoch time: 09091.66665395
Element set: 925
Inclination: 098.1156 deg
RA of node: 135.4137 deg
Eccentricity: 0.0008303
Arg of perigee: 219.3045 deg
Mean anomaly: 140.7572 deg
Mean motion: 14.79700987 rev/day
Decay rate: -2.26e-06 rev/day^2
Epoch rev: 34651
Checksum: 314
Satellite: RS-15
Catalog number: 23439
Epoch time: 09092.76932847
Element set: 191
Inclination: 064.8131 deg
RA of node: 026.7709 deg
Eccentricity: 0.0146758
Arg of perigee: 066.1701 deg
Mean anomaly: 295.4532 deg
Mean motion: 11.27553177 rev/day
Decay rate: -3.9e-07 rev/day^2
Epoch rev: 58761
Checksum: 330
Satellite: FO-29
Catalog number: 24278
Epoch time: 09091.68402176
Element set: 0022
Inclination: 098.5638 deg
RA of node: 335.9636 deg
Eccentricity: 0.0350586
Arg of perigee: 188.4621 deg
Mean anomaly: 171.0505 deg
Mean motion: 13.52942395 rev/day
Decay rate: -2.7e-07 rev/day^2
Epoch rev: 62340
Checksum: 320
Satellite: SO-33
Catalog number: 25509
Epoch time: 09091.44914546
Element set: 0422
Inclination: 031.4311 deg
RA of node: 126.4001 deg
Eccentricity: 0.0354135
Arg of perigee: 027.5274 deg
Mean anomaly: 334.3621 deg
Mean motion: 14.28248206 rev/day
Decay rate: 2.16e-06 rev/day^2
Epoch rev: 54485
Checksum: 270
Satellite: AO-40
Catalog number: 26609
Epoch time: 09092.16792666
Element set: 209
Inclination: 009.0768 deg
RA of node: 025.4745 deg
Eccentricity: 0.7956539
Arg of perigee: 190.5017 deg
Mean anomaly: 126.1224 deg
Mean motion: 01.25583921 rev/day
Decay rate: -3.21e-06 rev/day^2
Epoch rev: 3867
Checksum: 320
Satellite: RS-22
Catalog number: 27939
Epoch time: 09092.57139696
Element set: 755
Inclination: 097.9560 deg
RA of node: 330.1489 deg
Eccentricity: 0.0013908
Arg of perigee: 016.3195 deg
Mean anomaly: 343.8445 deg
Mean motion: 14.63304711 rev/day
Decay rate: 1.1e-07 rev/day^2
Epoch rev: 29451
Checksum: 322
Satellite: VO-52
Catalog number: 28650
Epoch time: 09091.80030356
Element set: 193
Inclination: 097.7484 deg
RA of node: 155.8811 deg
Eccentricity: 0.0026024
Arg of perigee: 279.9261 deg
Mean anomaly: 079.9056 deg
Mean motion: 14.81567140 rev/day
Decay rate: 1.17e-06 rev/day^2
Epoch rev: 21133
Checksum: 305
Satellite: PO-63
Catalog number: 29712
Epoch time: 09092.59241807
Element set: 366
Inclination: 097.8365 deg
RA of node: 150.7842 deg
Eccentricity: 0.0014555
Arg of perigee: 156.4580 deg
Mean anomaly: 203.7309 deg
Mean motion: 14.80490986 rev/day
Decay rate: 5.20e-06 rev/day^2
Epoch rev: 12028
Checksum: 318
/EX
SB KEPS @ AMSAT $ORB09092.D
Orbital Elements 09092.MICROS
HR AMSAT ORBITAL ELEMENTS FOR THE MICROSATS
FROM WA5QGD FORT WORTH,TX April 2, 2009
Send Subscribe/unsubscribe to KEPS at
http://www.amsat.org/mailman/listinfo/keps
BID: ORB09092.D
TO ALL RADIO AMATEURS BT
Satellite: AO-16
Catalog number: 20439
